When you browse on this site, cookies collect data to enhance your experience and personalize the content and advertising you see.
Visit our Privacy Policy to learn more. By continuing to use the site, you agree to this use of cookies and data.
  • In Hungary
  • List of Countries
  • For 7 days
  • Water Temperature
  • Satellite Maps
  • Weather Map
  • News
  • Weather Widgets
  • user-avatar
    Login

    Hourly Weather Mountain View

    Today, 23 July, Tuesday

    Time Temperature Precipitation Wind Pressure Humidity
    00:00 +20°C° 0 mm 1 mps 756 mmHg 59%
    01:00 +20°C° 0 mm 1 mps 756 mmHg 61%
    02:00 +19°C° 0 mm 1 mps 756 mmHg 62%
    03:00 +19°C° 0 mm 1 mps 756 mmHg 64%
    04:00 +19°C° 0 mm 1 mps 756 mmHg 66%
    05:00 +20°C° 0 mm 1 mps 756 mmHg 63%
    06:00 +21°C° 0 mm 1 mps 756 mmHg 59%
    07:00 +22°C° 0 mm 1 mps 756 mmHg 55%
    08:00 +25°C° 0 mm 1 mps 757 mmHg 48%
    09:00 +27°C° 0 mm 2 mps 757 mmHg 42%
    10:00 +30°C° 0 mm 2 mps 757 mmHg 35%
    11:00 +31°C° 0 mm 2 mps 757 mmHg 33%
    12:00 +33°C° 0 mm 3 mps 756 mmHg 31%
    13:00 +33°C° 0 mm 3 mps 756 mmHg 29%
    14:00 +31°C° 0 mm 3 mps 756 mmHg 30%
    15:00 +32°C° 0 mm 4 mps 756 mmHg 32%
    16:00 +30°C° 0 mm 4 mps 755 mmHg 33%
    17:00 +27°C° 0 mm 3 mps 755 mmHg 38%
    18:00 +25°C° 0 mm 3 mps 755 mmHg 43%
    19:00 +23°C° 0 mm 2 mps 755 mmHg 48%
    20:00 +21°C° 0 mm 2 mps 756 mmHg 50%
    21:00 +20°C° 0 mm 2 mps 756 mmHg 51%
    22:00 +19°C° 0 mm 1 mps 756 mmHg 53%
    23:00 +19°C° 0 mm 1 mps 756 mmHg 53%

    Tomorrow, 24 July, Wednesday

    Time Temperature Precipitation Wind Pressure Humidity
    00:00 +19°C° 0 mm 1 mps 756 mmHg 53%
    01:00 +19°C° 0 mm 1 mps 756 mmHg 52%
    02:00 +19°C° 0 mm 1 mps 756 mmHg 52%
    03:00 +19°C° 0 mm 1 mps 756 mmHg 52%
    04:00 +19°C° 0 mm 1 mps 756 mmHg 52%
    05:00 +20°C° 0 mm 1 mps 756 mmHg 50%
    06:00 +19°C° 0 mm 0 mps 756 mmHg 47%
    07:00 +21°C° 0 mm 0 mps 756 mmHg 45%
    08:00 +26°C° 0 mm 1 mps 756 mmHg 38%
    09:00 +29°C° 0 mm 1 mps 756 mmHg 31%
    10:00 +32°C° 0 mm 1 mps 756 mmHg 24%
    11:00 +34°C° 0 mm 2 mps 756 mmHg 22%
    12:00 +36°C° 0 mm 2 mps 756 mmHg 21%
    13:00 +37°C° 0 mm 2 mps 756 mmHg 19%
    14:00 +36°C° 0 mm 3 mps 755 mmHg 21%
    15:00 +35°C° 0 mm 3 mps 755 mmHg 23%
    16:00 +34°C° 0 mm 3 mps 754 mmHg 25%
    17:00 +30°C° 0 mm 3 mps 754 mmHg 30%
    18:00 +27°C° 0 mm 2 mps 754 mmHg 36%
    19:00 +25°C° 0 mm 2 mps 754 mmHg 42%
    20:00 +24°C° 0 mm 1 mps 754 mmHg 44%
    21:00 +22°C° 0 mm 1 mps 754 mmHg 46%
    22:00 +21°C° 0 mm 1 mps 755 mmHg 47%
    23:00 +21°C° 0 mm 1 mps 754 mmHg 48%

    Day after tomorrow, 25 July, Thursday

    Time Temperature Precipitation Wind Pressure Humidity
    00:00 +21°C° 0 mm 1 mps 754 mmHg 49%
    01:00 +20°C° 0 mm 1 mps 754 mmHg 50%
    02:00 +20°C° 0 mm 1 mps 754 mmHg 50%
    03:00 +20°C° 0 mm 1 mps 754 mmHg 49%
    04:00 +20°C° 0 mm 1 mps 754 mmHg 49%
    05:00 +21°C° 0 mm 1 mps 754 mmHg 47%
    06:00 +22°C° 0 mm 1 mps 754 mmHg 45%
    07:00 +24°C° 0 mm 1 mps 755 mmHg 42%
    08:00 +26°C° 0 mm 1 mps 755 mmHg 37%
    09:00 +29°C° 0 mm 1 mps 755 mmHg 32%
    10:00 +32°C° 0 mm 1 mps 755 mmHg 26%
    11:00 +34°C° 0 mm 2 mps 755 mmHg 26%
    12:00 +35°C° 0 mm 2 mps 755 mmHg 25%
    13:00 +36°C° 0 mm 3 mps 754 mmHg 25%
    14:00 +35°C° 0 mm 3 mps 754 mmHg 26%
    15:00 +34°C° 0 mm 3 mps 754 mmHg 28%
    16:00 +33°C° 0 mm 3 mps 753 mmHg 29%
    17:00 +30°C° 0 mm 2 mps 753 mmHg 36%
    18:00 +27°C° 0 mm 2 mps 754 mmHg 43%
    19:00 +25°C° 0 mm 2 mps 754 mmHg 50%
    20:00 +24°C° 0 mm 1 mps 754 mmHg 52%
    21:00 +22°C° 0 mm 1 mps 754 mmHg 54%
    22:00 +21°C° 0 mm 1 mps 754 mmHg 56%
    23:00 +21°C° 0 mm 1 mps 754 mmHg 58%

    26 July, Friday

    Time Temperature Precipitation Wind Pressure Humidity
    00:00 +20°C° 0 mm 1 mps 754 mmHg 60%
    01:00 +20°C° 0 mm 1 mps 754 mmHg 62%
    02:00 +20°C° 0 mm 1 mps 754 mmHg 62%
    03:00 +19°C° 0 mm 1 mps 754 mmHg 63%
    04:00 +19°C° 0 mm 1 mps 754 mmHg 63%
    05:00 +20°C° 0 mm 1 mps 755 mmHg 60%
    06:00 +21°C° 0 mm 1 mps 755 mmHg 57%
    07:00 +23°C° 0 mm 1 mps 755 mmHg 53%
    08:00 +25°C° 0 mm 1 mps 755 mmHg 46%
    09:00 +28°C° 0 mm 1 mps 756 mmHg 38%
    10:00 +31°C° 0 mm 1 mps 756 mmHg 31%
    11:00 +32°C° 0 mm 2 mps 756 mmHg 30%
    12:00 +34°C° 0 mm 2 mps 755 mmHg 29%
    13:00 +35°C° 0 mm 3 mps 755 mmHg 27%
    14:00 +34°C° 0 mm 3 mps 755 mmHg 29%
    15:00 +33°C° 0 mm 3 mps 754 mmHg 31%
    16:00 +31°C° 0 mm 3 mps 754 mmHg 33%
    17:00 +29°C° 0 mm 3 mps 754 mmHg 40%
    18:00 +26°C° 0 mm 2 mps 754 mmHg 47%
    19:00 +24°C° 0 mm 2 mps 754 mmHg 53%
    20:00 +23°C° 0 mm 2 mps 754 mmHg 56%
    21:00 +22°C° 0 mm 1 mps 754 mmHg 59%
    22:00 +21°C° 0 mm 1 mps 755 mmHg 62%
    23:00 +20°C° 0 mm 1 mps 755 mmHg 64%

    27 July, Saturday

    Time Temperature Precipitation Wind Pressure Humidity
    00:00 +20°C° 0 mm 1 mps 755 mmHg 66%
    01:00 +20°C° 0 mm 1 mps 754 mmHg 68%
    02:00 +19°C° 0 mm 1 mps 755 mmHg 68%
    03:00 +19°C° 0 mm 1 mps 755 mmHg 69%
    04:00 +19°C° 0 mm 1 mps 755 mmHg 70%
    05:00 +20°C° 0 mm 1 mps 755 mmHg 66%
    06:00 +21°C° 0 mm 1 mps 755 mmHg 61%
    07:00 +22°C° 0 mm 1 mps 755 mmHg 57%
    08:00 +25°C° 0 mm 1 mps 755 mmHg 48%
    09:00 +28°C° 0 mm 1 mps 755 mmHg 40%
    10:00 +32°C° 0 mm 1 mps 755 mmHg 32%
    11:00 +34°C° 0 mm 2 mps 755 mmHg 30%
    12:00 +35°C° 0 mm 2 mps 755 mmHg 28%
    13:00 +36°C° 0 mm 3 mps 755 mmHg 27%
    14:00 +35°C° 0 mm 3 mps 754 mmHg 28%
    15:00 +34°C° 0 mm 3 mps 754 mmHg 30%
    16:00 +33°C° 0 mm 3 mps 753 mmHg 32%
    17:00 +30°C° 0 mm 3 mps 753 mmHg 39%
    18:00 +27°C° 0 mm 3 mps 753 mmHg 46%
    19:00 +25°C° 0 mm 2 mps 753 mmHg 53%
    20:00 +24°C° 0 mm 2 mps 754 mmHg 57%
    21:00 +21°C° 0 mm 2 mps 754 mmHg 61%
    22:00 +20°C° 0 mm 2 mps 754 mmHg 66%
    23:00 +20°C° 0 mm 1 mps 754 mmHg 67%

    28 July, Sunday

    Time Temperature Precipitation Wind Pressure Humidity
    00:00 +20°C° 0 mm 1 mps 754 mmHg 69%
    01:00 +20°C° 0 mm 1 mps 754 mmHg 71%
    02:00 +19°C° 0 mm 1 mps 754 mmHg 72%
    03:00 +19°C° 0 mm 1 mps 754 mmHg 74%
    04:00 +18°C° 0 mm 1 mps 754 mmHg 76%
    05:00 +19°C° 0 mm 1 mps 754 mmHg 71%
    06:00 +21°C° 0 mm 1 mps 754 mmHg 66%
    07:00 +22°C° 0 mm 1 mps 755 mmHg 62%
    08:00 +25°C° 0 mm 1 mps 755 mmHg 53%
    09:00 +28°C° 0 mm 1 mps 755 mmHg 44%
    10:00 +31°C° 0 mm 2 mps 755 mmHg 36%
    11:00 +32°C° 0 mm 2 mps 754 mmHg 34%
    12:00 +34°C° 0 mm 2 mps 754 mmHg 32%
    13:00 +35°C° 0 mm 3 mps 754 mmHg 30%
    14:00 +34°C° 0 mm 3 mps 753 mmHg 33%
    15:00 +33°C° 0 mm 3 mps 753 mmHg 35%
    16:00 +31°C° 0 mm 3 mps 753 mmHg 38%
    17:00 +28°C° 0 mm 3 mps 753 mmHg 45%
    18:00 +26°C° 0 mm 2 mps 753 mmHg 53%
    19:00 +23°C° 0 mm 2 mps 753 mmHg 60%
    20:00 +21°C° 0 mm 2 mps 753 mmHg 63%
    21:00 +20°C° 0 mm 2 mps 753 mmHg 67%
    22:00 +19°C° 0 mm 1 mps 754 mmHg 71%
    23:00 +19°C° 0 mm 1 mps 754 mmHg 72%
    Show more